Flag for France Weather past 2 weeks in Strasbourg, France

61 °F

Mostly cloudy.

Feels Like: 61 °F
Forecast: 47 / 62 °F
Wind: 10 mph from Northwest

Location: Strasbourg Airport

Current Time: Oct 7, 2015 at 6:18:37 PM

Latest Report: Oct 7, 2015 at 6:00 PM

Visibility: N/A

Pressure: 30.01 "Hg

Humidity: 72%

Dew point: 52 °F

Location of StrasbourgLocation

Historic Weather in Strasbourg — Graph


Strasbourg temperature yesterday

Maximum temperature yesterday: 68 °F (at 1:00 PM)
Minimum temperature yesterday: 59 °F (at 12:30 AM)
Average temperature yesterday: 62 °F

Past Weeks' High & Low Weather Summary

High72 °F (Oct 3, 3:00 PM)100% (Sep 24, 9:00 AM)30.51 "Hg (Sep 24, 9:00 AM)
Low41 °F (Oct 2, 5:30 AM)34% (Sep 28, 4:30 PM)29.62 "Hg (Sep 22, 7:00 PM)
Average57 °F70%30.12 "Hg
* Reported Sep 22 5:00 PM — Oct 7 5:00 PM, Strasbourg, Weather by CustomWeather, © 2015

Note: Actual official high and low records may vary slightly from our data, if they occured in-between our weather recording intervals... More about our weather records


Strasbourg weather history for previous 24 hours

Time TempWeatherWind HumidityBarometerVisibility
5:00 PM
Wed, Oct 7
64 °FMostly cloudy.8 mph60%29.98 "HgN/A
4:30 PM64 °FBroken clouds.9 mph60%29.98 "HgN/A
4:00 PM66 °FPartly sunny.10 mph56%29.98 "HgN/A
3:30 PM66 °FPartly sunny.10 mph56%29.98 "HgN/A
3:00 PM64 °FMostly cloudy.10 mph60%29.98 "HgN/A
2:30 PM63 °FOvercast.12 mph64%29.98 "HgN/A
2:00 PM63 °FMostly cloudy.8 mph64%29.98 "HgN/A
1:30 PM63 °FMostly cloudy.7 mph64%29.98 "HgN/A
1:00 PM63 °FMostly cloudy.12 mph64%29.98 "HgN/A
12:30 PM63 °FCloudy.12 mph68%29.98 "HgN/A
12:00 PM61 °FMostly cloudy.8 mph68%29.95 "HgN/A
11:30 AM61 °FPartly sunny.6 mph72%29.95 "HgN/A
11:00 AM61 °FPartly sunny.9 mph68%29.95 "HgN/A
10:30 AM61 °FPartly sunny.8 mph68%29.95 "HgN/A
10:00 AM61 °FBroken clouds.8 mph72%29.92 "HgN/A
9:30 AM61 °FPartly sunny.6 mph77%29.92 "HgN/A
9:00 AM59 °FBroken clouds.8 mph82%29.89 "HgN/A
8:30 AM59 °FPartly cloudy.7 mph88%29.89 "HgN/A
8:00 AM59 °FMostly cloudy.7 mph82%29.89 "HgN/A
7:30 AM59 °FMostly cloudy.6 mph88%29.86 "HgN/A
7:00 AM59 °FMostly cloudy.5 mph88%29.86 "HgN/A
6:30 AM59 °FPartly cloudy.5 mph94%29.83 "HgN/A
6:00 AM59 °FPartly cloudy.6 mph94%29.83 "HgN/A
5:30 AM59 °FPassing clouds.6 mph94%29.83 "HgN/A
4:30 AM59 °FPartly cloudy.5 mph94%29.83 "HgN/A
4:00 AM59 °FPartly cloudy.3 mph94%29.80 "HgN/A
3:30 AM59 °FMostly cloudy.5 mph94%29.80 "HgN/A
3:00 AM59 °FPassing clouds.6 mph94%29.80 "HgN/A
2:30 AM59 °FPassing clouds.5 mph94%29.80 "HgN/A
2:00 AM59 °FPartly cloudy.3 mph94%29.80 "HgN/A
1:30 AM59 °FPassing clouds.No wind94%29.80 "HgN/A
1:00 AM59 °FPartly cloudy.2 mph94%29.80 "HgN/A
12:30 AM61 °FPassing clouds.3 mph88%29.80 "HgN/A
12:00 AM61 °FPassing clouds.6 mph88%29.77 "HgN/A
11:30 PM
Tue, Oct 6
59 °FPassing clouds.6 mph94%29.77 "HgN/A
11:00 PM61 °FOvercast.7 mph88%29.77 "HgN/A
10:30 PM61 °FPassing clouds.6 mph88%29.77 "HgN/A
10:00 PM61 °FOvercast.7 mph88%29.77 "HgN/A
9:30 PM61 °FPassing clouds.5 mph88%29.74 "HgN/A
9:00 PM61 °FPassing clouds.7 mph88%29.74 "HgN/A
8:30 PM61 °FClear.9 mph88%29.74 "Hg10 mi
8:00 PM61 °FClear.9 mph94%29.74 "Hg10 mi
7:30 PM63 °FSunny.8 mph88%29.74 "Hg10 mi
7:00 PM63 °FOvercast.7 mph88%29.74 "HgN/A
6:30 PM63 °FBroken clouds.8 mph88%29.71 "HgN/A
6:00 PM63 °FPartly sunny.9 mph88%29.71 "HgN/A
Weather by CustomWeather, © 2015

See weather overviewHow to use our weather pages